Weather History for Hatteras, NC

Change the Weather History Date:

Wednesday, February 5, 2014

  Actual Average Record
Temperature  
Mean Temperature 57 °F 46 °F  
Max Temperature 65 °F 53 °F 69 °F (1991)
Min Temperature 49 °F 39 °F 13 °F (1886)
Degree Days  
Heating Degree Days 8 19  
Month to date heating degree days 62 95  
Since 1 July heating degree days 1407 1508  
Cooling Degree Days 0 0  
Month to date cooling degree days 0 0  
Year to date cooling degree days 0 0  
Growing Degree Days 7 (Base 50)    
Moisture  
Dew Point 60 °F    
Average Humidity 97    
Maximum Humidity 100    
Minimum Humidity 93    
Precipitation  
Precipitation 0.20 in 0.16 in 1.15 in (1963)
Month to date precipitation 0.23 0.77  
Year to date precipitation 5.57 6.01  
Snow  
Snow 0.00 in - - ()
Month to date snowfall 0.0  
Since 1 July snowfall T  
Snow Depth 0.00 in    
Sea Level Pressure  
Sea Level Pressure 29.90 in    
Wind  
Wind Speed 12 mph (SW)    
Max Wind Speed 23 mph    
Max Gust Speed 33 mph    
Visibility 3 miles    
Events Fog , Rain    
T = Trace of Precipitation, MM = Missing Value Source: NWS Daily Summary

Daily Weather History Graph

Daily Weather History Graph

Search for Another Location

Airport:

Trip Planner

Search our weather history database for the weather conditions in past years. The results will help you decide how hot, cold, wet, or windy it might be!

Date:

Astronomy

Feb. 05, 2014 Rise Set
Actual Time 6:58 AM EST 5:34 PM EST
Civil Twilight 6:32 AM EST 6:01 PM EST
Nautical Twilight 6:01 AM EST 6:31 PM EST
Astronomical Twilight 5:32 AM EST 7:01 PM EST
Moon 10:27 AM EST (2/5) No Moon Set
Length of Visible Light 11h 29m
Length of Day
10h 36m
Waxing Crescent, 39% of the Moon is Illuminated
Feb 5
Waxing Crescent
Feb 6
First Quarter
Feb 14
Full
Feb 22
Last Quarter
Mar 1
New

Hourly Weather History & Observations

Time (EST) Temp. Dew Point Humidity Pressure Visibility Wind Dir Wind Speed Gust Speed Precip Events Conditions
12:10 AM 57.0 °F 57.0 °F 100% 30.06 in 2.5 mi SE 11.5 mph - 0.01 in Rain Light Rain
12:37 AM 57.0 °F 57.0 °F 100% 30.04 in 3.0 mi SE 13.8 mph - 0.02 in Rain Light Rain
12:51 AM 57.0 °F 57.0 °F 100% 30.03 in 2.5 mi SE 11.5 mph - 0.03 in Rain Light Rain
1:04 AM 57.9 °F 57.9 °F 100% 30.02 in 1.8 mi SSE 17.3 mph - 0.02 in Rain Rain
1:12 AM 57.9 °F 57.9 °F 100% 30.02 in 1.8 mi SSE 19.6 mph 26.5 mph 0.03 in Rain Light Rain
1:28 AM 60.1 °F 60.1 °F 100% 30.02 in 2.5 mi South 17.3 mph 26.5 mph 0.03 in   Overcast
1:47 AM 59.0 °F 59.0 °F 100% 30.01 in 2.5 mi SSE 17.3 mph - 0.03 in   Overcast
1:51 AM 60.1 °F 60.1 °F 100% 30.01 in 2.5 mi South 17.3 mph 24.2 mph 0.03 in   Overcast
1:59 AM 61.0 °F 61.0 °F 100% 30.00 in 1.8 mi South 17.3 mph - 0.02 in Rain Heavy Rain
2:09 AM 62.1 °F 62.1 °F 100% 30.00 in 3.0 mi SSW 15.0 mph 28.8 mph 0.05 in Rain Light Rain
2:34 AM 62.1 °F 62.1 °F 100% 29.99 in 4.0 mi South 17.3 mph 31.1 mph 0.06 in Rain Light Rain
2:51 AM 61.0 °F 61.0 °F 100% 29.99 in 5.0 mi SSW 18.4 mph 26.5 mph 0.06 in Rain Light Rain
3:40 AM 60.1 °F 60.1 °F 100% 29.96 in 2.5 mi SSW 12.7 mph - 0.02 in   Overcast
3:51 AM 59.0 °F 59.0 °F 100% 29.96 in 3.0 mi SSW 11.5 mph - 0.02 in   Overcast
4:33 AM 60.1 °F 60.1 °F 100% 29.96 in 2.5 mi SW 9.2 mph - N/A   Overcast
4:51 AM 59.0 °F 59.0 °F 100% 29.96 in 2.0 mi WSW 8.1 mph - N/A   Overcast
4:56 AM 57.9 °F 57.9 °F 100% 29.96 in 1.8 mi SW 6.9 mph - N/A   Overcast
5:25 AM 57.9 °F 57.9 °F 100% 29.96 in 2.5 mi WSW 6.9 mph - N/A   Overcast
5:32 AM 57.9 °F 57.9 °F 100% 29.96 in 2.0 mi WSW 8.1 mph - N/A   Overcast
5:39 AM 57.9 °F 57.9 °F 100% 29.95 in 1.5 mi SW 6.9 mph - N/A   Mostly Cloudy
5:48 AM 57.2 °F 57.2 °F 100% 29.95 in 1.8 mi SW 6.9 mph - N/A   Mostly Cloudy
5:51 AM 57.9 °F 57.9 °F 100% 29.96 in 2.0 mi SW 6.9 mph - N/A   Mostly Cloudy
6:07 AM 59.0 °F 59.0 °F 100% 29.95 in 1.8 mi SW 8.1 mph - N/A   Mostly Cloudy
6:18 AM 59.0 °F 59.0 °F 100% 29.95 in 2.5 mi SW 9.2 mph - 0.00 in   Overcast
6:30 AM 60.1 °F 60.1 °F 100% 29.95 in 4.0 mi SSW 12.7 mph - 0.00 in   Overcast
6:41 AM 61.0 °F 61.0 °F 100% 29.95 in 4.0 mi SSW 11.5 mph 20.7 mph 0.00 in   Overcast
6:51 AM 61.0 °F 61.0 °F 100% 29.95 in 5.0 mi SSW 13.8 mph 20.7 mph 0.00 in   Overcast
7:12 AM 61.0 °F 61.0 °F 100% 29.95 in 2.5 mi SSW 12.7 mph - N/A   Overcast
7:32 AM 61.0 °F 61.0 °F 100% 29.95 in 2.0 mi SSW 10.4 mph - N/A   Overcast
7:39 AM 61.0 °F 61.0 °F 100% 29.94 in 2.5 mi SSW 13.8 mph - N/A   Overcast
7:49 AM 60.8 °F 60.8 °F 100% 29.94 in 3.0 mi SSW 11.5 mph - N/A   Overcast
7:51 AM 61.0 °F 61.0 °F 100% 29.95 in 2.5 mi SSW 10.4 mph - N/A   Overcast
8:01 AM 61.0 °F 61.0 °F 100% 29.95 in 2.5 mi SSW 10.4 mph - N/A   Overcast
8:51 AM 62.1 °F 62.1 °F 100% 29.94 in 2.5 mi SW 12.7 mph - 0.00 in Rain Light Rain
9:41 AM 62.1 °F 62.1 °F 100% 29.93 in 2.5 mi SW 12.7 mph - 0.00 in   Mostly Cloudy
9:51 AM 62.1 °F 62.1 °F 100% 29.94 in 2.5 mi SW 12.7 mph - 0.00 in   Overcast
10:02 AM 62.1 °F 62.1 °F 100% 29.93 in 2.5 mi SW 12.7 mph - 0.00 in Rain Light Rain
10:23 AM 63.0 °F 62.1 °F 97% 29.92 in 3.0 mi SW 12.7 mph - 0.00 in   Mostly Cloudy
10:49 AM 62.6 °F 60.8 °F 94% 29.91 in 1.8 mi SW 15.0 mph - 0.00 in Rain Light Rain
10:51 AM 63.0 °F 62.1 °F 97% 29.91 in 1.8 mi WSW 17.3 mph 24.2 mph 0.01 in Rain Light Rain
10:58 AM 64.0 °F 64.0 °F 100% 29.90 in 2.5 mi SW 16.1 mph 29.9 mph 0.00 in Rain Light Rain
11:06 AM 64.0 °F 63.0 °F 96% 29.90 in 3.0 mi SW 16.1 mph 27.6 mph 0.00 in   Mostly Cloudy
11:18 AM 63.0 °F 63.0 °F 100% 29.89 in 2.0 mi SW 11.5 mph - 0.00 in   Mostly Cloudy
11:29 AM 63.0 °F 62.1 °F 97% 29.87 in 2.0 mi SW 12.7 mph - 0.00 in   Mostly Cloudy
11:51 AM 62.1 °F 62.1 °F 100% 29.86 in 2.0 mi SW 11.5 mph - 0.01 in Rain Light Rain
12:24 PM 63.0 °F 62.1 °F 97% 29.84 in 2.5 mi SW 15.0 mph 21.9 mph 0.00 in   Overcast
12:51 PM 62.1 °F 62.1 °F 100% 29.82 in 2.0 mi SW 18.4 mph 25.3 mph 0.00 in Rain Light Rain
1:05 PM 63.0 °F 63.0 °F 100% 29.82 in 2.5 mi WSW 18.4 mph 27.6 mph 0.00 in   Overcast
1:25 PM 62.1 °F 62.1 °F 100% 29.81 in 2.0 mi WSW 16.1 mph 24.2 mph 0.00 in   Mostly Cloudy
1:32 PM 63.0 °F 62.1 °F 97% 29.80 in 2.5 mi WSW 16.1 mph 24.2 mph 0.00 in   Mostly Cloudy
1:51 PM 62.1 °F 61.0 °F 96% 29.79 in 2.5 mi WSW 13.8 mph 20.7 mph 0.00 in   Overcast
2:32 PM 62.1 °F 62.1 °F 100% 29.78 in 1.5 mi WSW 21.9 mph 33.4 mph 0.02 in Rain Light Rain
2:47 PM 62.6 °F 62.6 °F 100% 29.77 in 2.0 mi WSW 18.4 mph 31.1 mph 0.04 in Rain Rain
2:51 PM 62.1 °F 62.1 °F 100% 29.78 in 2.5 mi WSW 17.3 mph 28.8 mph 0.04 in Rain Light Rain
3:14 PM 62.1 °F 62.1 °F 100% 29.77 in 2.5 mi WSW 20.7 mph 28.8 mph 0.00 in Rain Light Rain
3:23 PM 62.1 °F 62.1 °F 100% 29.77 in 3.0 mi WSW 23.0 mph 33.4 mph 0.00 in   Overcast
3:31 PM 62.1 °F 62.1 °F 100% 29.77 in 3.0 mi WSW 21.9 mph 33.4 mph 0.00 in Rain Light Rain
3:51 PM 62.1 °F 62.1 °F 100% 29.78 in 3.0 mi WSW 17.3 mph 28.8 mph 0.00 in   Mostly Cloudy
4:00 PM 62.1 °F 61.0 °F 96% 29.79 in 3.0 mi WSW 16.1 mph 27.6 mph N/A   Overcast
4:30 PM 61.0 °F 61.0 °F 100% 29.78 in 2.5 mi WSW 18.4 mph 32.2 mph N/A   Overcast
4:43 PM 61.0 °F 60.1 °F 97% 29.78 in 1.8 mi WSW 19.6 mph 28.8 mph N/A   Overcast
4:51 PM 60.1 °F 60.1 °F 100% 29.78 in 1.5 mi WSW 17.3 mph 28.8 mph N/A   Overcast
5:03 PM 60.1 °F 60.1 °F 100% 29.79 in 1.0 mi WSW 16.1 mph 28.8 mph N/A   Overcast
5:10 PM 60.1 °F 60.1 °F 100% 29.79 in 0.8 mi WSW 17.3 mph 27.6 mph N/A   Overcast
5:49 PM 59.0 °F 59.0 °F 100% 29.81 in 1.5 mi WSW 16.1 mph 24.2 mph N/A   Overcast
5:51 PM 59.0 °F 59.0 °F 100% 29.81 in 2.0 mi WSW 13.8 mph 24.2 mph N/A   Overcast
6:13 PM 57.9 °F 57.9 °F 100% 29.83 in 1.2 mi WNW 10.4 mph 20.7 mph N/A   Overcast
6:22 PM 55.0 °F 55.0 °F 100% 29.84 in 0.5 mi West 10.4 mph 19.6 mph N/A Fog Fog
6:34 PM 57.0 °F 57.0 °F 100% 29.85 in 1.5 mi West 11.5 mph 21.9 mph N/A   Overcast
6:37 PM 57.0 °F 57.0 °F 100% 29.85 in 3.0 mi West 11.5 mph 21.9 mph N/A   Overcast
6:46 PM 55.4 °F 55.4 °F 100% 29.85 in 9.0 mi West 10.4 mph - N/A   Overcast
6:51 PM 55.9 °F 55.9 °F 100% 29.86 in 10.0 mi WNW 10.4 mph 18.4 mph N/A   Mostly Cloudy
7:21 PM 54.0 °F 54.0 °F 100% 29.87 in 10.0 mi WNW 9.2 mph 18.4 mph N/A   Scattered Clouds
7:51 PM 52.0 °F 52.0 °F 100% 29.88 in 10.0 mi WNW 8.1 mph - N/A   Clear
8:51 PM 51.1 °F 50.0 °F 96% 29.91 in 10.0 mi WNW 9.2 mph - N/A   Clear
9:51 PM 50.0 °F 48.9 °F 96% 29.94 in 10.0 mi Calm Calm - N/A   Clear
10:51 PM 48.9 °F 48.0 °F 97% 29.96 in 10.0 mi NNW 4.6 mph - N/A   Clear